Date,TemperatureHighF,TemperatureAvgF,TemperatureLowF,DewpointHighF,DewpointAvgF,DewpointLowF,HumidityHigh,HumidityAvg,HumidityLow,PressureMaxIn,PressureMinIn,WindSpeedMaxMPH,WindSpeedAvgMPH,GustSpeedMaxMPH,PrecipitationSumIn
2013-7-1,83,60,53,62,52,47,87,77,48,29.85,29.78,30,9,31,0.00
2013-7-2,65,57,54,59,51,48,87,81,78,29.92,29.80,34,11,34,0.00
2013-7-3,77,60,54,63,54,48,88,79,57,29.91,29.74,31,9,31,0.00
2013-7-4,67,61,54,60,55,50,88,81,70,29.77,29.66,32,14,33,0.00
2013-7-5,60,54,51,54,50,45,89,84,78,29.78,29.69,30,9,31,0.00
2013-7-6,63,55,52,55,49,46,86,82,74,29.81,29.73,24,5,29,0.00
2013-7-7,63,55,52,56,50,46,85,82,77,29.86,29.77,28,8,31,0.00
2013-7-8,62,56,52,56,50,45,85,81,77,29.97,29.84,24,7,26,0.00
2013-7-9,52,51,50,46,45,44,79,78,77,30.01,29.96,18,2,20,0.00
2013-7-10,59,54,51,56,48,44,88,81,78,29.98,29.90,20,7,32,0.00
2013-7-11,57,52,50,53,47,44,88,82,78,29.94,29.87,22,6,34,0.00
2013-7-12,59,53,51,54,48,44,86,82,78,29.94,29.86,32,13,32,0.00
2013-7-13,62,54,51,56,49,44,86,81,77,29.96,29.88,30,10,30,0.00
2013-7-14,52,52,51,45,45,45,78,78,78,29.98,29.93,23,3,23,0.00
2013-7-15,58,55,49,54,50,43,88,84,77,29.93,29.84,23,4,26,0.00
2013-7-16,63,56,52,56,50,45,86,81,77,30.02,29.86,17,1,17,0.02
2013-7-17,62,56,52,56,50,44,85,80,75,30.09,30.01,27,7,27,0.00
2013-7-18,61,53,51,56,47,44,87,79,75,30.06,29.93,31,9,33,0.00
2013-7-19,58,53,51,54,47,44,88,80,76,29.95,29.81,32,8,34,0.00
2013-7-20,57,52,50,54,46,43,88,80,76,29.86,29.73,31,8,31,0.00
2013-7-21,59,53,50,55,46,43,89,79,76,29.88,29.77,27,5,27,0.00
2013-7-22,59,55,52,55,48,45,88,78,75,29.95,29.87,25,9,25,0.00
2013-7-23,66,57,54,60,51,46,88,80,73,30.00,29.93,23,7,24,0.00
2013-7-24,64,57,52,59,50,44,89,79,73,29.99,29.88,29,10,30,0.00
2013-7-25,58,53,51,54,46,43,89,78,74,30.02,29.92,30,8,30,0.00
2013-7-26,60,54,52,57,47,44,90,78,74,30.10,29.99,29,5,29,0.00
2013-7-27,60,54,52,56,47,44,89,77,74,30.04,29.85,29,4,29,0.01
2013-7-28,58,54,52,54,48,44,89,79,74,29.88,29.81,20,2,21,0.00
2013-7-29,62,56,52,56,50,45,87,81,76,30.00,29.84,19,4,23,0.00
2013-7-30,61,55,51,56,48,43,86,80,73,30.10,30.00,32,6,33,0.00
2013-7-31,58,54,51,54,48,42,87,80,72,30.09,29.99,28,7,30,0.00